Las Vegas, NV

6:15 PM PST on December 03, 2016 (GMT -0800)
Nellis Air Force Base

Weather History for KLSV - April, 2013

Change the Weather History Date:

Sunday, April 28, 2013

  Actual Average Record
Temperature  
Mean Temperature 76 °F -  
Max Temperature 94 °F 80 °F 96 °F (2007)
Min Temperature 58 °F 56 °F 51 °F (1999)
Cooling Degree Days 11    
Growing Degree Days 26 (Base 50)    
Moisture  
Dew Point 18 °F    
Average Humidity 11    
Maximum Humidity 19    
Minimum Humidity 6    
Precipitation  
Precipitation 0.00 in - - ()
Sea Level Pressure  
Sea Level Pressure 29.82 in    
Wind  
Wind Speed 4 mph (South)    
Max Wind Speed 9 mph    
Max Gust Speed -    
Visibility 10 miles    
Events      
Averages and records for this station are not official NWS values.
T = Trace of Precipitation, MM = Missing Value Source: NWS Daily Summary

Daily Weather History Graph

Daily Weather History Graph

Search for Another Location

Airport or City:

Trip Planner

Search our weather history database for the weather conditions in past years. The results will help you decide how hot, cold, wet, or windy it might be!

Date:

Astronomy

Apr. 28, 2013 Rise Set
Actual Time 5:50 AM PDT 7:25 PM PDT
Civil Twilight 5:22 AM PDT 7:52 PM PDT
Nautical Twilight 4:49 AM PDT 8:25 PM PDT
Astronomical Twilight 4:15 AM PDT 9:00 PM PDT
Moon 10:56 PM PDT (4/28) 8:14 AM PDT (4/28)
Length of Visible Light 14h 30m
Length of Day
13h 35m
Waning Gibbous, 88% of the Moon is Illuminated
Apr 28
Waning Gibbous
May 2
Last Quarter
May 9
New
May 17
First Quarter
May 24
Full

Hourly Weather History & Observations

Time (PDT) Temp. Dew Point Humidity Pressure Visibility Wind Dir Wind Speed Gust Speed Precip Events Conditions
12:58 AM 65.8 °F 15.6 °F 14% 29.88 in 10.0 mi ENE 6.9 mph - N/A   Clear
1:58 AM 64.6 °F 15.6 °F 15% 29.90 in 10.0 mi East 2.3 mph - N/A   Clear
2:58 AM 69.6 °F 17.1 °F 13% 29.88 in 10.0 mi ENE 6.9 mph - N/A   Clear
3:58 AM 64.6 °F 17.1 °F 16% 29.88 in 10.0 mi WNW 4.6 mph - N/A   Clear
4:58 AM 61.9 °F 16.5 °F 17% 29.90 in 10.0 mi West 2.3 mph - N/A   Clear
5:58 AM 58.8 °F 15.8 °F 19% 29.91 in 10.0 mi NNE 2.3 mph - N/A   Clear
6:58 AM 61.7 °F 16.7 °F 17% 29.92 in 10.0 mi Calm Calm - N/A   Clear
7:58 AM 66.2 °F 19.2 °F 17% 29.93 in 10.0 mi East 2.3 mph - N/A   Clear
8:58 AM 71.1 °F 21.6 °F 15% 29.91 in 10.0 mi Calm Calm - N/A   Clear
9:58 AM 78.6 °F 19.9 °F 11% 29.91 in 10.0 mi Calm Calm - N/A   Clear
10:58 AM 84.0 °F 17.1 °F 8% 29.89 in 10.0 mi Variable 1.2 mph - N/A   Clear
11:58 AM 88.0 °F 17.1 °F 7% 29.88 in 10.0 mi Variable 1.2 mph - N/A   Clear
12:58 PM 90.0 °F 18.7 °F 7% 29.84 in 10.0 mi WSW 5.8 mph - N/A   Clear
1:58 PM 92.3 °F 16.7 °F 6% 29.81 in 10.0 mi SSW 2.3 mph - N/A   Clear
2:58 PM 93.2 °F 17.4 °F 6% 29.77 in 10.0 mi South 5.8 mph - N/A   Clear
3:58 PM 93.7 °F 17.8 °F 6% 29.74 in 10.0 mi SE 3.5 mph - N/A   Clear
4:58 PM 94.5 °F 18.3 °F 6% 29.72 in 10.0 mi Variable 2.3 mph - N/A   Clear
5:58 PM 94.1 °F 18.1 °F 6% 29.70 in 10.0 mi South 8.1 mph - N/A   Clear
6:58 PM 92.8 °F 17.1 °F 6% 29.69 in 5.0 mi SSW 5.8 mph - N/A   Haze
7:58 PM 87.8 °F 16.9 °F 7% 29.68 in 10.0 mi South 4.6 mph - N/A   Clear
8:58 PM 84.6 °F 16.9 °F 8% 29.70 in 8.0 mi Variable 3.5 mph - N/A   Clear
9:58 PM 83.5 °F 19.9 °F 10% 29.71 in 10.0 mi South 9.2 mph - N/A   Clear
10:58 PM 81.3 °F 24.4 °F 12% 29.70 in 10.0 mi West 4.6 mph - N/A   Clear
11:58 PM 72.5 °F 18.0 °F 13% 29.71 in 10.0 mi NW 4.6 mph - N/A   Clear